Regional Weather Roundup
Issued by NWS

Home | Current Version | Previous Version | Text Only | Print | Product List | Glossary Off
Versions: 1 2 3 4 5 6 7 8 9 10 11 12 13 14 15 16 17 18 19 20 21 22 23 24 25 26 27 28 29 30 31 32 33 34 35 36 37 38 39 40 41 42 43 44 45 46 47 48 49 50

000
ASUS45 KPSR 221800
RWRAZ

PRELIMINARY ARIZONA REGIONAL HOURLY WEATHER ROUNDUP
NATIONAL WEATHER SERVICE PHOENIX AZ
1100 AM MST WED OCT 22 2014

NOTE: FAIR INDICATES FEW OR NO CLOUDS BELOW 12,000 FEET WITH NO
SIGNIFICANT WEATHER AND/OR OBSTRUCTIONS TO VISIBILITY.

AZZ001>003-036-221900-
NORTHWEST ARIZONA

CITY           SKY/WX    TMP DP  RH WIND       PRES   REMARKS
KINGMAN        SUNNY     77  44  30 CALM      30.09F
6HR MIN TEMP:  49; 6HR MAX TEMP:  78;

$$

AZZ004>008-015-016-018-221900-
NORTH CENTRAL ARIZONA

CITY           SKY/WX    TMP DP  RH WIND       PRES   REMARKS
GRAND CANYON   SUNNY     63  36  36 SW7       30.26S
6HR MIN TEMP:  30; 6HR MAX TEMP:  63;

PRESCOTT       MOSUNNY   69  41  36 NE6       30.19S
6HR MIN TEMP:  44; 6HR MAX TEMP:  70;

FLAGSTAFF      SUNNY     60  37  42 VRB3      30.27S
6HR MIN TEMP:  35; 6HR MAX TEMP:  61;

PAYSON         SUNNY     70  46  43 CALM      30.21S
PAGE           MOSUNNY   68  39  34 N6        30.14S
6HR MIN TEMP:  55; 6HR MAX TEMP:  69;

$$

AZZ009>014-017-221900-
NORTHEAST ARIZONA

CITY           SKY/WX    TMP DP  RH WIND       PRES   REMARKS
WINSLOW        NOT AVBL
SAINT JOHNS    SUNNY     66  44  45 NW6       30.21S
6HR MIN TEMP:  44; 6HR MAX TEMP:  66;

$$

AZZ023-221900-
GREATER PHOENIX AREA

CITY           SKY/WX    TMP DP  RH WIND       PRES   REMARKS
PHOENIX        MOSUNNY   83  52  34 E6        29.96F
6HR MIN TEMP:  67; 6HR MAX TEMP:  83;

GLENDALE       SUNNY     81  54  39 CALM      29.99S
LUKE AFB       SUNNY     81  53  37 CALM      29.97S
6HR MIN TEMP:  63; 6HR MAX TEMP:  81;

DEER VALLEY    SUNNY     81  50  33 CALM      29.98S
6HR MIN TEMP:  66; 6HR MAX TEMP:  82;

SCOTTSDALE     SUNNY     82  52  35 VRB3      30.00S
6HR MIN TEMP:  63; 6HR MAX TEMP:  82;

MESA-GATEWAY   SUNNY     79  55  44 CALM      30.00S
CHANDLER       SUNNY     81  54  39 VRB5      29.98F
$$

AZZ027-028-221900-
SOUTHWEST MARICOPA COUNTY AND PINAL COUNTY

CITY           SKY/WX    TMP DP  RH WIND       PRES   REMARKS
CASA GRANDE    SUNNY     79  52  38 CALM      29.99S
6HR MIN TEMP:  59; 6HR MAX TEMP:  79;

GILA BEND      CLEAR     86  50  28 N7        29.96S
$$

AZZ503-504-507>509-221900-
SOUTHEAST ARIZONA

CITY           SKY/WX    TMP DP  RH WIND       PRES   REMARKS
TUCSON         SUNNY     80  50  34 SE3       30.04F
6HR MIN TEMP:  60; 6HR MAX TEMP:  80;

DAVIS-MONTHAN  SUNNY     81  50  33 E9        30.02S
6HR MIN TEMP:  59; 6HR MAX TEMP:  81;

RYAN FIELD       N/A     82  52  34 E9        30.03S
NOGALES        SUNNY     77  50  39 MISG      30.09F
6HR MIN TEMP:  49; 6HR MAX TEMP:  78;

SIERRA VISTA   MOSUNNY   73  46  38 E7        30.14F
SAFFORD        SUNNY     74  53  48 SE9       30.09S
6HR MIN TEMP:  56; 6HR MAX TEMP:  74;

$$

AZZ020-021-025-026-031-221900-
SOUTHWEST ARIZONA

CITY           SKY/WX    TMP DP  RH WIND       PRES   REMARKS
YUMA           NOT AVBL
$$

CAZ031-033-041-043-047-048-061-221900-
SOUTHERN CALIFORNIA

CITY           SKY/WX    TMP DP  RH WIND       PRES   REMARKS
DOWNTOWN L.A.  SUNNY     75  57  53 CALM      29.94F
6HR MIN TEMP:  60; 6HR MAX TEMP:  75;

L.A. AIRPORT     N/A     75  59  57 NE3       29.95F
SAN DIEGO      MOSUNNY   75  55  49 W3        29.94F
6HR MIN TEMP:  63; 6HR MAX TEMP:  75;

BURBANK        SUNNY     74  44  34 CALM      29.96S
6HR MIN TEMP:  57; 6HR MAX TEMP:  74;

ONTARIO        PTSUNNY   74  49  41 CALM      29.97S
6HR MIN TEMP:  58; 6HR MAX TEMP:  74;

RIVERSIDE      SUNNY     77  50  38 CALM      29.96F
6HR MIN TEMP:  55; 6HR MAX TEMP:  77;

PALM SPRINGS   SUNNY     87  28  12 CALM      29.94S
6HR MIN TEMP:  65; 6HR MAX TEMP:  87;

EL CENTRO NAS  MOSUNNY   85  46  25 VRB3      29.90F
6HR MIN TEMP:  60; 6HR MAX TEMP:  85;

IMPERIAL       SUNNY     83  47  28 VRB3      29.90S
6HR MIN TEMP:  63; 6HR MAX TEMP:  83;

BLYTHE         SUNNY     82  47  29 CALM      29.94S
6HR MIN TEMP:  64; 6HR MAX TEMP:  83;

$$

NVZ020-UTZ003-221900-
SOUTHERN NEVADA-UTAH

CITY           SKY/WX    TMP DP  RH WIND       PRES   REMARKS
LAS VEGAS      NOT AVBL
SALT LAKE CITY MOSUNNY   55  30  38 SE3       30.20F
6HR MIN TEMP:  38; 6HR MAX TEMP:  55;

$$

NMZ009-TXZ055-221900-
NEW MEXICO-WEST TEXAS

CITY           SKY/WX    TMP DP  RH WIND       PRES   REMARKS
ALBUQUERQUE    MOSUNNY   63  49  60 CALM      30.21F
6HR MIN TEMP:  52; 6HR MAX TEMP:  65;

EL PASO        PTSUNNY   69  56  62 E3        30.15S
6HR MIN TEMP:  60; 6HR MAX TEMP:  70;

$$


........................KEY........................
SKY/WX - SKY CONDITION/WEATHER
TMP    - TEMPERATURE IN FAHRENHEIT
DP     - DEW POINT IN FAHRENHEIT
RH     - RELATIVE HUMIDITY IN PERCENT
WIND   - DIRECTION AND SPEED IN MILES PER HOUR (MPH)
VRB    - VARIABLE WIND DIRECTION
PRES   - MEAN SEA LEVEL PRESSURE IN INCHES OF MERCURY
         F - FALLING PRESSURE   R - RISING PRESSURE
         S - STEADY PRESSURE
VSB    - VISIBILITY IN MILES
HX     - HEAT INDEX IN FAHRENHEIT
WCI    - WIND CHILL INDEX IN FAHRENHEIT
TC     - TEMPERATURE IN CELSIUS WHICH IS ALSO KNOWN AS
         TEMPERATURE IN CENTIGRADE
AFB    - AIR FORCE BASE
         LUKE AFB IS LUKE AIR FORCE BASE
         DAVIS-MONTHAN IS DAVIS-MONTHAN AIR FORCE BASE
NAS    - NAVAL AIR STATION
         EL CENTRO NAS IS EL CENTRO NAVAL AIR STATION
N/A    - NOT AVAILABLE



USA.gov is the U.S. government's official web portal to all federal, state and local government web resources and services.